Regional Weather Roundup
Issued by NWS

Home | Current Version | Previous Version | Graphics & Text | Print | Product List | Glossary On
Versions: 1 2 3 4 5 6 7 8 9 10 11 12 13 14 15 16 17 18 19 20 21 22 23 24 25 26 27
000
ASUS45 KBOU 171607
RWRCO

WEATHER ROUNDUP FOR COLORADO
NATIONAL WEATHER SERVICE DENVER/BOULDER CO
900 AM MST TUE JAN 17 2017

NOTE: "FAIR" INDICATES FEW OR NO CLOUDS BELOW 12000 FEET WITH NO
SIGNIFICANT WEATHER AND/OR OBSTRUCTIONS TO VISIBILITY.

COZ001>005-013-030-031-171700-
...NORTHWEST COLORADO...

CITY           SKY/WX    TMP DP  RH WIND       PRES   REMARKS
CRAIG          CLOUDY    14  10  84 SW5       30.24R FOG     WCI   6
HAYDEN         PTSUNNY   14  10  85 CALM      30.21R
MEEKER         CLOUDY    17  13  84 E3        30.23R
MOUNT WERNER   NOT AVBL
STEAMBOAT SPGS CLOUDY    14  11  89 CALM      30.21R
WALDEN           N/A    N/A N/A N/A CALM      30.17S
$$

COZ006>008-011-171700-
...WEST CENTRAL VALLEYS...

CITY           SKY/WX    TMP DP  RH WIND       PRES   REMARKS
GRAND JUNCTION FAIR      28  22  78 CALM      30.21R
MONTROSE       CLOUDY    31  28  89 E3        30.22R
EAGLE          CLOUDY    27  21  80 CALM      30.23R
RIFLE          FAIR      23  17  78 E3        30.23R
DELTA          CLOUDY    33  27  79 CALM      30.22R
NUCLA          CLOUDY    32  27  80 CALM      30.22R
$$

COZ017>023-064>068-171700-
...SOUTHWEST COLORADO...

CITY           SKY/WX    TMP DP  RH WIND       PRES   REMARKS
DURANGO        CLOUDY    32  30  92 CALM      30.16R
CORTEZ         CLOUDY    35  33  92 N3        30.16R
PAGOSA SPRINGS CLOUDY    32  32 100 CALM      30.16R
TELLURIDE      CLOUDY    24  24  99 CALM      30.16R
WOLF CREEK PAS CLOUDY    18  18 100 SW7       30.20R WCI   8
$$

COZ009-010-012-014-032>034-037-058>063-171700-
...CENTRAL COLORADO...

CITY           SKY/WX    TMP DP  RH WIND       PRES   REMARKS
ASPEN          FAIR      21  16  81 S3        30.15R
BUENA VISTA    FAIR      15  13  92 SW3       30.13R
COPPER MTN     HAZE      23  18  80 MISG      30.15R VSB<1/4
BERTHOUD PASS  NOT AVBL
COTTONWOOD PAS FAIR      28  21  74 NW6       30.10S WCI  22
GUNNISON       CLOUDY    23  21  93 E5        30.18R FOG     WCI  17
KREMMLING      CLOUDY    23  19  86 CALM      30.22R
LEADVILLE      FAIR      18  13  80 N5        30.12R WCI  11
MONARCH PASS   CLOUDY    19  16  86 MISG      30.23R
SALIDA         FAIR      28  23  82 N10G20    30.19R WCI  18
SUNLIGHT       FAIR      19  18  93 SW6       30.19R FOG     WCI  11
WILKERSON PASS FAIR      25  12  58 N8        30.14R WCI  16
$$

COZ069>075-171700-
...SAN LUIS VALLEY/SANGRE DE CRISTO MOUNTAINS...

CITY           SKY/WX    TMP DP  RH WIND       PRES   REMARKS
ALAMOSA        CLOUDY    23  20  88 NW5       30.15R WCI  17
LA VETA PASS   CLOUDY    27  23  86 NE28G37   30.09R FOG     WCI  11
SAGUACHE       MIX PCPN  30  28  93 CALM      30.16R
$$

COZ035-036-038>040-171700-
...NORTHERN COLORADO FRONT RANGE...

CITY           SKY/WX    TMP DP  RH WIND       PRES   REMARKS
DENVER INTL AP FAIR      29  21  72 SW9       30.07R WCI  20
DMNS CITY PARK   N/A     29  20  70 SE7       30.07S WCI  22
AURORA         MOSUNNY   26  22  84 S9        30.06R WCI  17
FRONT RANGE AP MOSUNNY   32  25  74 SW7       30.07R WCI  26
ERIE MUNI ARPT FAIR      20  19  96 CALM      30.08R
BOULDER MUN AP FAIR      27  27 100 CALM      30.07R
CENTENNIAL     FAIR      22  18  85 SE6       30.06R WCI  14
BROOMFIELD     SUNNY     27  19  74 CALM      30.07R
FORT COLLINS   FAIR      25  19  80 CALM      30.07F
LONGMONT       FAIR      22  20  92 CALM      30.09S
$$

COZ041-046-047-076>085-087-088-171700-
...PIKES PEAK/PALMER DIVIDE AND SOUTHERN FOOTHILLS...

CITY           SKY/WX    TMP DP  RH WIND       PRES   REMARKS
COLO. SPRINGS  CLOUDY    29  27  92 NE6       30.09R WCI  23
A. F. ACADEMY  CLOUDY    28  26  93 CALM      30.06S
SCHRIEVER AFB  NOT AVBL
ELLICOTT       CLOUDY   N/A N/A N/A W5        30.07R
FALCON         FOG       28  28 100 CALM      30.08R VSB 1/4
FORT CARSON    PTSUNNY   30  28  93 VRB1      30.10S FOG
LIMON          CLOUDY    23  23 100 CALM      30.08F FOG
MONUMENT HILL  FAIR     N/A N/A N/A SW7       30.06S
TRINIDAD       FAIR      25  21  85 W15       30.08S WCI  13
$$

COZ042>045-048>051-090-091-171700-
...NORTHEAST COLORADO...

CITY           SKY/WX    TMP DP  RH WIND       PRES   REMARKS
GREELEY ARPT   FAIR      29  22  75 SW3       30.09S
AKRON          FAIR      31  24  75 SW9       30.07R WCI  23
BURLINGTON     FAIR      28  21  75 W7        30.10S WCI  21
WRAY           NOT AVBL
STERLING       FAIR      21  18  86 SW8       30.08S WCI  12
HOLYOKE        FAIR      19  10  68 W8        30.09S WCI   9
FORT MORGAN    FAIR      22  19  87 W8        30.09S WCI  12
$$

COZ086-089-092>099-171700-
...SOUTHEAST COLORADO...

CITY           SKY/WX    TMP DP  RH WIND       PRES   REMARKS
PUEBLO         FOG       30  28  92 NE6       30.11R VSB 1/4 WCI  24
LA JUNTA       FAIR      28  25  88 SW3       30.13R
LAMAR          FAIR      30  27  88 W9        30.13R WCI  22
SPRINGFIELD      N/A     30  27  88 SW5       30.13R WCI  25
$$




USA.gov is the U.S. government's official web portal to all federal, state and local government web resources and services.